Etusivu
METAR-TAF:

METAR-TAF

Lentoasemat :

Lowell, Idaho, Yhdysvallat

Leveyspiiri: 46-08-39N, Pituuspiiri: 115-35-47W, korkeus merenpinnasta: 480 m

Tämänhetkinen sää

Tämä raportti tehtiin 1 tunti ja 12 minuuttia sitten, kello 12.52 UTC
Tuuli 4 kn pohjoisesta
Lämpötila 4°C
Kosteus 100%
Ilmanpaine 1014 hPa

METAR: KP69 301252Z AUTO 36004KT 04/04 A2995 RMK AO1 SLP150 T00440039

Aika: 07:04 (14:04 UTC)


TAF: puuttuu

Säähavainnot ja -ennusteet yli 4000 lentoasemalta (METAR- ja TAF-raportit).

Käytössä olevat sääasemat on merkitty karttaan keltaisilla ja punaisilla pisteillä.

Aseta hiiri pisteen päälle nähdäksesi sääaseman nimen.

Klikkaa sitten nähdäksesi säähavainnot ja -ennusteet.

Kartan vaihtaminen: klikkaa mustalla rastilla varustettuja vihreitä pisteitä, niin voit zoomata sisään; viivalla varustettua vihreää pistettä, niin voit zoomata ulos tai vihreitä nuolia, niin pääset viereisille kartoille.


METAR-TAF: